Temperature
6 6 6 6 6 6 6 6 6 6 6 6 6 6 6 6 6 5 6 6 6 6 6 6 6 6 6 6 6 6 5 5 5 5 5 5 5 5 5 5 5 6 6
6 6 6 6 6 6 6 6 5 5 5 5 5 5 5 5 5 5 5 5 5 5 5 5 5 5 5 5 5 5 5 5 4 4 4 4 4 4 4 5 5 5 5
6 6 6 6 5 5 5 5 5 5 5 5 5 5 5 5 5 5 5 5 5 5 5 5 5 5 4 4 4 4 4 4 4 4 4 4 4 4 4 4 4 4 4
6 6 5 5 5 5 5 5 5 5 5 5 5 4 4 4 4 4 4 4 4 4 4 4 4 4 4 4 3 3 3 3 3 3 3 3 3 3 2 3 3 3 3
5 5 5 5 5 5 5 5 5 5 5 4 4 4 4 4 4 4 4 4 4 4 4 4 3 3 3 3 3 3 2 2 2 2 2 2 2 2 2 2 2 2 2
5 5 5 5 5 5 5 5 5 4 4 4 4 4 4 4 4 4 3 3 3 3 3 3 3 3 3 2 2 2 2 2 2 1 1 1 1 1 1 0 0 0 0
5 5 5 5 5 4 4 4 4 4 4 4 3 3 3 3 3 3 3 3 3 3 2 2 2 2 2 2 2 2 2 1 1 1 0 0 0 -0 -0 -0 -0 -1 -0
5 5 5 5 4 4 4 4 4 4 4 3 3 3 3 3 3 3 3 2 2 2 2 2 2 2 2 1 1 1 1 1 1 0 0 -0 -0 -1 -1 -1 -1 -1 -1
5 5 5 4 4 4 4 4 4 4 3 3 3 3 3 3 2 2 2 2 2 2 2 1 1 1 1 1 1 0 0 0 -0 -0 -0 -1 -1 -1 -1 -2 -2 -2 -2
5 5 4 4 4 4 4 4 3 3 3 3 3 3 2 2 2 2 2 1 1 1 1 1 1 0 0 0 -0 -0 -0 -1 -1 -1 -1 -1 -1 -1 -2 -2 -2 -3 -3
5 5 4 4 4 4 4 3 3 3 3 3 2 2 2 2 2 2 1 1 1 1 1 0 0 0 -0 -0 -1 -1 -1 -1 -1 -2 -2 -2 -2 -2 -2 -2 -3 -3 -3
4 4 4 4 4 3 3 3 3 3 2 2 2 2 2 2 1 1 1 1 1 0 0 0 -0 -0 -1 -1 -1 -1 -2 -2 -2 -2 -2 -2 -2 -2 -2 -3 -3 -3 -3
4 4 4 4 3 3 3 3 3 2 2 2 2 2 1 1 1 1 1 1 0 0 -0 -0 -1 -1 -1 -1 -1 -2 -2 -2 -3 -3 -3 -3 -3 -3 -3 -3 -3 -3 -3
4 4 4 3 3 3 3 3 2 2 2 2 2 1 1 1 1 0 0 0 -0 -0 -1 -1 -1 -1 -1 -2 -2 -2 -3 -3 -3 -3 -4 -4 -4 -4 -4 -4 -4 -4 -4
4 3 3 3 3 3 3 2 2 2 2 2 1 1 1 1 0 0 -0 -0 -1 -1 -1 -1 -1 -2 -2 -2 -3 -3 -3 -3 -3 -4 -4 -4 -4 -4 -4 -4 -4 -5 -5
3 3 3 3 3 3 2 2 2 2 2 1 1 1 1 0 -0 -0 -1 -1 -1 -1 -2 -2 -2 -2 -3 -3 -3 -3 -3 -4 -4 -4 -4 -5 -5 -5 -5 -5 -5 -5 -5
3 3 3 3 3 2 2 2 2 2 1 1 1 0 0 -0 -0 -1 -1 -1 -2 -2 -2 -2 -3 -3 -3 -3 -4 -4 -4 -4 -4 -5 -5 -5 -5 -5 -5 -5 -5 -6 -6
3 3 3 3 2 2 2 2 1 1 1 1 0 0 -0 -0 -1 -1 -2 -2 -2 -2 -3 -3 -3 -3 -4 -4 -4 -4 -5 -5 -5 -5 -5 -5 -6 -6 -6 -6 -6 -6 -6
3 3 2 2 2 2 1 1 1 1 0 0 0 -0 -1 -1 -1 -2 -2 -2 -2 -3 -3 -3 -3 -4 -4 -4 -5 -5 -5 -5 -5 -6 -6 -6 -6 -6 -6 -6 -7 -7 -7
2 2 2 2 2 1 1 1 1 0 0 -0 -0 -1 -1 -1 -2 -2 -2 -2 -3 -3 -3 -3 -4 -4 -4 -5 -5 -5 -5 -5 -6 -6 -6 -6 -6 -6 -7 -7 -7 -7 -7
2 2 2 1 1 1 1 0 0 -0 -0 -1 -1 -1 -1 -2 -2 -2 -2 -3 -3 -3 -3 -4 -4 -4 -5 -5 -5 -5 -6 -6 -6 -6 -6 -6 -6 -7 -7 -7 -7 -7 -7
2 2 1 1 1 1 0 0 -0 -1 -1 -1 -1 -1 -2 -2 -2 -2 -3 -3 -3 -3 -4 -4 -5 -5 -5 -5 -5 -6 -6 -6 -6 -6 -6 -7 -7 -7 -7 -7 -7 -8 -8
1 1 1 1 1 0 -0 -0 -1 -1 -1 -1 -1 -1 -2 -2 -2 -2 -3 -3 -3 -4 -4 -5 -5 -5 -5 -6 -6 -6 -6 -6 -6 -7 -7 -7 -7 -7 -7 -8 -8 -8 -8
1 1 1 1 0 0 -0 -1 -1 -1 -1 -1 -1 -2 -2 -2 -2 -3 -3 -3 -4 -4 -4 -5 -5 -5 -5 -6 -6 -6 -6 -7 -7 -7 -7 -7 -7 -8 -8 -8 -8 -8 -8
1 1 0 0 -0 -0 -0 -1 -1 -1 -1 -2 -2 -2 -2 -3 -3 -3 -3 -3 -4 -4 -4 -5 -5 -5 -6 -6 -6 -6 -6 -7 -7 -7 -7 -8 -8 -8 -8 -8 -8 -8 -8
0 0 -0 -0 -0 -1 -1 -1 -1 -1 -2 -2 -2 -2 -2 -3 -3 -3 -3 -4 -4 -4 -5 -5 -5 -6 -6 -6 -6 -7 -7 -7 -7 -7 -8 -8 -8 -8 -8 -8 -8 -8 -8
Wind_Speed
5 5 4 4 4 4 3 4 4 4 3 3 3 3 3 3 3 3 3 3 3 3 2 3 3 3 3 3 3 3 4 4 6 5 5 6 7 7 7 8 8 9 9
5 5 4 4 3 4 4 4 3 3 3 3 3 3 3 3 3 3 3 3 3 3 3 3 3 3 3 3 3 3 3 4 5 7 6 5 7 7 8 8 7 8 8
5 5 4 4 4 4 3 3 3 2 2 2 2 2 3 3 2 2 3 3 3 3 3 3 3 3 3 3 4 4 4 4 5 6 6 5 6 6 7 7 8 7 8
5 5 5 4 4 4 3 3 2 2 2 2 2 2 2 2 2 2 2 2 2 2 2 3 3 3 4 4 4 4 4 4 5 5 6 6 5 6 6 6 7 7 7
5 5 5 4 4 3 3 3 2 1 2 2 1 2 2 2 2 3 3 3 3 2 2 2 2 2 3 4 3 4 4 4 4 5 5 5 5 5 5 6 7 8 8
6 6 5 4 4 4 3 3 2 2 2 1 1 2 2 2 2 2 2 2 2 2 2 2 2 2 2 3 4 4 5 5 5 5 5 6 7 6 6 6 7 7 6
6 6 5 5 5 4 4 3 3 2 2 2 2 2 2 2 2 2 2 2 2 2 2 2 1 2 3 3 3 3 4 5 6 6 7 7 8 7 8 8 8 8 9
6 6 6 6 6 5 4 4 4 3 3 3 2 2 2 2 2 2 2 2 2 2 2 2 2 2 2 3 3 4 4 4 5 5 6 7 7 8 8 8 8 9 9
7 7 6 6 6 6 5 5 4 4 3 3 3 3 3 2 2 2 3 2 2 2 2 2 2 2 2 3 3 4 4 4 4 5 6 6 8 9 7 5 6 6 7
8 7 6 6 7 7 6 5 4 4 4 3 3 3 3 3 1 2 3 2 2 2 1 1 2 2 3 4 4 4 4 4 5 5 5 5 6 6 6 5 5 6 6
6 6 6 6 7 7 6 5 5 4 4 4 3 3 3 3 2 3 3 2 2 2 2 1 1 2 3 4 4 4 4 5 4 4 4 5 5 4 5 5 5 5 6
6 6 6 6 6 5 6 5 5 5 5 4 4 3 3 3 3 3 3 3 2 2 2 2 1 2 3 4 3 3 5 4 3 3 4 4 4 5 5 6 7 7 7
6 7 7 6 6 6 6 6 5 5 5 4 4 4 3 3 3 4 4 4 3 2 2 1 2 2 3 2 3 4 4 2 2 3 4 4 4 5 5 5 6 6 7
7 7 7 6 6 7 6 6 6 6 6 5 5 4 4 3 3 3 3 3 3 3 2 2 2 2 2 2 3 2 2 2 3 3 4 4 5 5 5 5 5 6 6
8 7 7 7 7 6 7 6 7 7 7 6 5 5 5 4 5 5 4 3 3 3 2 2 2 2 2 2 2 2 2 2 3 3 4 4 5 5 5 5 5 5 5
8 7 6 6 6 6 6 5 7 8 8 9 7 6 5 5 4 6 7 6 5 5 4 3 3 3 3 2 2 2 2 2 3 3 4 4 4 5 5 5 5 5 6
9 8 6 6 6 6 6 6 5 6 9 9 10 9 8 6 6 7 7 7 7 6 5 4 3 3 3 3 3 3 3 3 3 3 3 4 4 5 5 5 5 5 6
9 9 8 7 7 7 7 6 6 5 5 5 7 10 10 9 8 7 7 6 5 6 5 4 4 4 3 3 3 3 3 3 3 3 4 4 4 4 5 5 5 6 7
8 7 7 7 6 6 6 6 6 7 6 5 4 5 8 8 8 8 8 6 6 5 5 5 4 4 4 4 3 3 4 4 4 4 4 4 4 4 5 5 5 7 7
8 9 8 6 6 6 6 6 6 6 6 6 6 5 5 6 6 6 6 6 6 5 5 5 4 4 4 4 4 3 4 4 4 4 4 4 4 4 5 6 5 6 6
7 7 9 7 7 7 7 7 7 7 7 7 6 7 9 7 7 7 6 6 6 6 5 5 5 5 4 4 4 4 4 4 4 4 4 4 4 4 5 5 5 5 6
6 6 7 8 7 7 7 7 7 7 7 7 6 6 11 7 6 6 6 6 6 5 5 5 5 5 4 4 4 4 4 4 4 4 4 4 4 4 4 4 5 5 5
7 7 7 7 7 8 8 7 7 7 7 7 6 6 7 7 7 7 6 6 5 5 4 4 5 4 4 4 4 5 5 5 4 4 4 4 4 4 4 5 5 6 6
7 8 8 7 7 7 7 7 7 7 7 7 7 7 7 7 7 7 6 5 5 5 4 4 5 6 6 5 5 5 6 6 5 5 6 5 5 5 5 5 5 6 5
7 8 8 8 7 7 7 7 7 7 7 7 7 7 7 7 6 6 6 5 5 5 5 5 5 5 6 6 6 6 7 8 7 6 5 5 5 5 5 5 5 5 5
8 8 7 7 7 7 7 7 7 7 7 7 7 7 7 6 6 6 6 5 5 5 5 5 5 6 6 6 7 7 8 8 8 8 6 4 4 4 4 4 5 5 5
Wind_Direction
275 276 278 282 284 282 278 282 283 282 282 282 283 285 289 293 288 278 274 270 260 261 264 260 263 265 261 261 265 264 261 260 265 277 278 285 287 291 293 292 288 285 282
265 266 269 274 276 277 280 285 285 282 283 281 282 280 284 285 281 272 266 260 256 257 259 259 265 268 269 268 265 262 261 264 265 276 283 284 286 290 290 290 292 289 287
252 254 258 261 264 270 276 282 287 288 287 286 278 270 270 273 273 272 266 264 261 259 260 262 267 272 275 274 272 268 267 266 264 268 278 284 287 292 295 294 292 292 296
247 248 251 255 259 264 270 276 287 294 293 294 295 282 278 277 275 273 265 262 268 274 272 268 273 272 275 279 276 274 273 272 268 269 277 285 288 292 294 297 299 301 300
242 244 248 253 257 259 262 269 279 287 286 284 295 304 298 289 290 282 265 258 262 267 273 274 282 292 297 290 286 288 286 280 281 279 282 287 288 296 295 298 296 301 298
234 239 242 244 246 247 251 253 254 261 271 279 287 295 302 296 312 304 287 267 269 268 275 285 293 294 306 312 312 314 305 288 285 283 283 285 292 297 297 294 296 299 294
233 234 233 234 239 241 239 238 241 244 246 252 265 277 279 285 296 281 272 267 266 272 278 294 309 322 318 318 321 316 308 305 294 286 284 289 294 297 297 294 292 291 288
232 233 229 228 232 232 232 235 238 236 234 238 247 260 271 284 292 279 260 251 254 267 278 283 286 310 328 322 314 313 313 315 308 296 288 291 295 296 290 290 292 292 289
232 232 229 226 228 227 227 232 231 227 228 233 236 239 249 262 271 273 265 240 239 253 269 283 287 297 326 316 305 306 309 318 332 323 312 308 311 310 302 291 289 290 292
234 233 229 225 227 228 228 227 224 223 225 224 226 230 237 249 248 256 266 240 239 249 263 283 301 310 321 312 296 295 301 313 319 318 317 319 317 318 316 297 286 285 292
234 231 228 225 226 227 226 220 216 217 219 219 227 233 237 244 238 241 255 247 242 245 255 275 299 320 319 318 307 298 300 308 309 310 315 321 325 325 323 316 302 284 281
227 228 228 225 223 220 219 215 213 212 216 221 227 235 235 233 241 240 237 244 257 245 256 273 297 317 311 312 315 321 318 314 307 309 313 320 323 324 322 317 309 296 281
223 227 228 225 223 218 215 212 210 213 218 221 224 232 234 229 230 234 233 231 229 240 252 277 296 303 303 304 317 323 317 309 306 304 308 313 314 312 312 313 312 303 294
227 228 225 221 220 217 215 213 212 213 216 219 222 228 231 230 228 222 223 222 218 226 236 238 257 275 283 302 309 310 308 311 306 300 305 308 310 311 313 316 313 316 309
229 228 224 220 218 215 215 217 218 222 222 219 221 221 222 230 227 218 211 209 212 214 211 223 238 252 265 281 294 299 303 303 302 305 306 310 313 315 314 317 312 311 306
226 226 222 218 216 213 214 222 226 231 229 231 235 231 232 235 216 210 212 212 209 202 208 224 230 239 253 267 278 284 286 292 298 302 303 307 311 313 314 315 313 310 310
226 225 222 217 215 212 211 215 224 223 226 232 234 232 231 226 217 213 213 213 211 208 218 228 233 239 249 257 263 270 278 286 291 290 294 301 306 308 311 312 314 314 312
228 226 221 220 215 212 212 214 216 218 219 224 226 228 228 225 218 213 210 206 213 214 223 229 235 239 244 250 255 262 270 278 280 284 289 294 298 302 306 310 312 313 311
225 226 222 219 213 212 212 212 215 218 222 222 215 213 215 216 212 211 206 212 217 218 221 228 234 236 240 244 250 254 258 266 274 279 282 287 291 294 298 302 306 310 313
226 221 217 215 211 210 210 212 214 216 219 219 217 209 193 195 205 206 207 213 218 221 222 226 231 234 237 239 243 247 253 260 268 272 279 284 287 288 290 296 302 307 310
222 216 209 213 214 213 212 214 214 215 216 219 220 208 197 202 208 209 210 214 217 220 221 224 228 230 231 233 237 242 247 255 261 268 275 280 285 287 290 292 298 303 307
216 214 210 213 213 213 215 214 214 216 217 219 219 209 207 210 212 213 214 216 218 218 218 220 225 227 227 228 232 238 243 250 255 260 268 274 279 283 288 292 300 305 307
213 212 211 213 213 213 215 216 215 216 217 216 211 206 206 212 214 214 214 213 211 212 212 215 222 226 226 229 232 233 238 245 250 254 259 268 275 281 285 291 297 302 307
213 213 213 212 211 210 212 216 216 216 216 213 210 208 209 211 213 212 211 208 207 209 210 214 222 225 225 229 236 237 240 245 251 251 250 257 267 275 280 286 292 297 301
216 215 214 213 212 212 212 213 215 215 215 212 210 209 209 209 211 209 207 203 202 208 211 216 221 224 225 230 237 241 244 248 255 257 250 253 262 268 276 284 291 297 301
218 217 217 215 214 213 212 213 214 213 214 211 209 207 206 207 207 205 202 199 200 204 209 215 219 223 228 235 239 243 248 253 257 257 254 255 260 267 278 283 290 293 297
Height
1481 1480 1479 1477 1476 1475 1473 1472 1470 1469 1468 1467 1466 1465 1464 1464 1463 1462 1461 1461 1460 1460 1459 1459 1459 1459 1458 1458 1457 1457 1456 1456 1454 1453 1453 1452 1451 1450 1448 1446 1445 1444 1442
1478 1477 1475 1474 1473 1472 1470 1469 1468 1466 1465 1464 1463 1462 1461 1460 1460 1459 1458 1458 1457 1457 1456 1456 1455 1455 1454 1454 1453 1453 1452 1451 1450 1448 1448 1447 1446 1445 1443 1441 1440 1438 1437
1475 1474 1472 1471 1470 1469 1467 1466 1465 1463 1462 1461 1460 1459 1458 1457 1457 1456 1455 1455 1454 1454 1453 1453 1452 1452 1451 1450 1449 1449 1448 1447 1446 1445 1443 1442 1441 1440 1438 1436 1435 1433 1431
1471 1470 1469 1468 1467 1465 1464 1463 1462 1461 1459 1458 1457 1457 1456 1455 1454 1453 1452 1452 1451 1451 1450 1449 1449 1448 1448 1447 1446 1445 1444 1443 1442 1441 1439 1438 1436 1435 1433 1431 1429 1428 1426
1468 1467 1466 1465 1464 1462 1461 1460 1459 1458 1457 1456 1455 1454 1453 1452 1451 1451 1450 1449 1448 1448 1447 1446 1445 1445 1444 1444 1443 1442 1441 1440 1438 1437 1435 1434 1432 1430 1429 1427 1425 1422 1420
1464 1463 1462 1461 1460 1459 1458 1457 1456 1455 1454 1453 1452 1452 1451 1450 1449 1448 1447 1446 1445 1445 1444 1443 1442 1442 1441 1440 1439 1438 1437 1436 1435 1433 1431 1430 1428 1426 1425 1423 1421 1418 1415
1460 1459 1458 1458 1457 1456 1455 1454 1453 1452 1452 1451 1450 1449 1448 1447 1446 1445 1444 1443 1442 1442 1441 1440 1439 1438 1438 1437 1435 1434 1433 1432 1431 1430 1428 1426 1424 1423 1421 1419 1417 1415 1412
1456 1455 1454 1454 1453 1452 1452 1451 1450 1449 1449 1448 1447 1446 1446 1445 1444 1443 1442 1441 1440 1439 1438 1437 1436 1435 1434 1433 1432 1431 1429 1428 1427 1425 1424 1422 1420 1418 1417 1415 1413 1410 1407
1451 1451 1450 1450 1449 1449 1448 1447 1447 1446 1446 1445 1444 1444 1443 1442 1441 1440 1439 1438 1437 1436 1435 1435 1434 1433 1432 1430 1429 1427 1426 1424 1423 1421 1419 1418 1416 1414 1412 1411 1408 1406 1402
1447 1447 1446 1446 1445 1445 1444 1444 1443 1443 1442 1442 1441 1441 1440 1439 1438 1437 1437 1436 1435 1434 1433 1432 1431 1430 1429 1427 1426 1424 1422 1421 1419 1417 1416 1414 1412 1410 1408 1407 1404 1402 1399
1442 1442 1441 1441 1441 1441 1440 1440 1439 1439 1439 1438 1438 1437 1437 1436 1435 1434 1434 1433 1432 1431 1430 1429 1428 1427 1425 1424 1422 1421 1419 1417 1416 1414 1412 1410 1408 1406 1404 1402 1401 1399 1396
1437 1437 1437 1436 1436 1436 1436 1435 1435 1435 1435 1434 1434 1434 1433 1433 1432 1431 1431 1430 1429 1428 1427 1426 1425 1424 1422 1421 1419 1417 1416 1414 1412 1411 1409 1407 1404 1403 1401 1399 1397 1395 1392
1432 1432 1431 1431 1431 1431 1431 1431 1431 1430 1430 1430 1430 1430 1429 1429 1429 1428 1427 1427 1426 1425 1424 1423 1422 1421 1419 1418 1416 1415 1413 1411 1410 1408 1406 1404 1402 1400 1397 1395 1393 1391 1388
1426 1426 1426 1426 1426 1426 1426 1426 1426 1426 1426 1426 1425 1425 1425 1425 1425 1424 1424 1423 1423 1422 1421 1420 1419 1418 1417 1415 1413 1412 1410 1409 1407 1405 1403 1401 1399 1397 1395 1392 1389 1386 1384
1421 1421 1421 1421 1421 1421 1421 1421 1421 1421 1421 1421 1421 1422 1421 1421 1421 1421 1421 1420 1420 1419 1418 1417 1416 1415 1414 1412 1411 1409 1408 1406 1404 1402 1400 1398 1396 1394 1392 1390 1387 1384 1381
1415 1415 1415 1415 1415 1415 1415 1416 1416 1416 1416 1417 1417 1417 1417 1417 1417 1417 1417 1417 1416 1416 1415 1413 1413 1412 1410 1409 1408 1406 1405 1403 1401 1400 1398 1396 1393 1391 1389 1387 1384 1382 1379
1409 1409 1409 1409 1409 1410 1410 1410 1410 1411 1411 1411 1412 1412 1412 1413 1413 1413 1413 1413 1412 1412 1411 1410 1409 1408 1407 1406 1405 1403 1402 1400 1399 1397 1395 1393 1391 1389 1387 1384 1382 1379 1376
1403 1403 1403 1403 1403 1404 1404 1404 1405 1405 1405 1405 1406 1407 1407 1408 1408 1408 1408 1408 1408 1407 1407 1406 1406 1405 1404 1403 1401 1400 1399 1397 1396 1394 1392 1390 1388 1386 1384 1382 1379 1377 1374
1396 1397 1397 1397 1397 1398 1399 1399 1399 1400 1400 1400 1401 1402 1402 1403 1403 1403 1403 1403 1403 1403 1403 1402 1402 1401 1400 1399 1398 1397 1395 1394 1393 1391 1390 1388 1386 1384 1382 1379 1377 1374 1372
1390 1391 1391 1391 1392 1392 1393 1393 1393 1394 1394 1395 1395 1396 1397 1397 1398 1398 1398 1398 1399 1399 1398 1398 1397 1397 1396 1395 1394 1393 1392 1390 1389 1388 1386 1385 1383 1381 1379 1377 1375 1372 1370
1385 1385 1385 1386 1386 1386 1387 1387 1388 1388 1389 1389 1390 1391 1392 1392 1393 1393 1394 1394 1394 1394 1394 1394 1393 1393 1392 1391 1390 1389 1388 1387 1386 1385 1383 1382 1380 1378 1376 1375 1373 1370 1368
1378 1379 1379 1379 1380 1380 1381 1382 1382 1383 1383 1384 1385 1386 1386 1387 1387 1388 1389 1389 1389 1389 1389 1389 1388 1388 1388 1387 1386 1385 1384 1383 1382 1381 1380 1378 1377 1375 1374 1372 1370 1368 1366
1372 1373 1373 1374 1374 1375 1376 1376 1377 1377 1378 1379 1379 1380 1381 1382 1382 1383 1384 1384 1384 1384 1384 1384 1384 1383 1383 1383 1382 1381 1381 1380 1379 1378 1377 1375 1374 1372 1371 1369 1367 1365 1363
1367 1367 1367 1368 1369 1369 1370 1370 1371 1372 1373 1373 1374 1375 1376 1377 1377 1378 1379 1379 1379 1380 1380 1379 1379 1379 1379 1378 1378 1377 1377 1376 1375 1374 1373 1372 1371 1370 1368 1367 1365 1363 1361
1361 1361 1362 1362 1362 1363 1364 1365 1366 1367 1367 1368 1369 1370 1371 1372 1372 1373 1374 1374 1374 1375 1375 1375 1375 1375 1375 1374 1374 1373 1373 1372 1372 1371 1370 1369 1368 1367 1366 1364 1362 1361 1359
1355 1355 1356 1356 1357 1357 1358 1359 1360 1361 1362 1363 1364 1365 1366 1367 1368 1368 1369 1369 1370 1370 1370 1370 1370 1370 1370 1370 1370 1370 1369 1369 1368 1368 1367 1366 1365 1364 1363 1362 1360 1359 1357